Theta_e
308 307 318 320 319 313 318 318 316 319 319 318 320 324 323 320 327 328 319 318 318 320 328 330 332 333 335 337 336 335 333 331 331 331 331 331 331 330 326 323 321 316 319 321 322 324 323 325 323
307 309 317 323 314 318 316 316 319 317 317 324 324 323 320 317 317 318 318 317 317 317 318 325 329 331 333 335 336 336 335 333 331 331 330 330 330 331 328 326 322 319 322 320 326 324 323 324 323
309 313 320 314 310 315 315 316 316 316 316 318 319 320 318 316 316 317 316 313 314 316 318 319 321 328 330 331 333 334 335 335 333 330 330 330 329 330 331 328 324 321 322 321 324 324 323 323 322
316 319 318 317 318 315 315 315 314 315 315 316 319 315 316 316 316 315 313 312 313 313 313 313 314 317 324 328 330 332 333 333 334 333 330 329 329 328 331 329 327 324 324 320 318 323 323 322 321
318 318 313 314 314 315 313 314 313 313 313 314 316 316 315 313 313 312 312 311 311 311 311 311 311 311 312 316 326 329 333 333 333 333 332 329 329 327 328 328 327 326 326 320 323 323 323 322 322
318 315 315 315 314 314 313 313 313 312 313 314 314 316 314 312 313 313 313 312 311 310 310 310 310 311 311 311 312 318 325 330 331 333 332 331 328 327 325 324 326 328 327 320 323 321 321 322 320
315 309 313 314 313 314 313 314 313 312 312 313 313 314 313 312 312 312 311 311 310 309 309 309 309 309 309 310 310 310 312 323 329 330 332 332 328 327 325 324 324 328 327 322 320 322 320 320 317
315 308 312 311 313 315 313 313 313 313 312 313 313 310 312 313 313 312 311 310 309 308 308 308 308 308 308 308 308 309 310 311 318 327 330 331 328 328 326 324 325 327 327 321 319 322 320 320 310
314 310 309 311 311 313 313 313 314 313 312 313 313 312 312 312 311 310 309 308 308 305 303 302 303 303 304 305 308 308 308 309 310 314 323 328 327 328 327 325 326 328 326 319 320 323 321 317 310
309 307 310 312 312 312 313 312 313 313 312 312 313 313 312 311 310 309 308 308 304 302 301 300 300 302 303 304 308 309 308 308 309 310 311 318 324 326 328 324 327 328 323 316 322 322 321 317 309
310 310 312 314 313 313 313 313 313 312 311 312 313 313 312 311 309 308 307 304 303 301 300 300 300 301 303 304 307 308 307 308 308 308 309 310 314 325 327 325 326 328 323 318 321 322 321 318 308
313 312 313 314 314 313 313 313 312 312 313 313 313 313 311 310 309 307 305 304 302 301 300 299 299 301 303 305 307 307 307 307 307 308 308 309 310 323 327 326 326 327 322 318 319 321 320 319 309
311 312 313 314 313 313 313 312 310 311 312 313 313 311 310 310 309 307 306 304 303 300 299 299 299 301 304 306 308 308 307 307 307 307 307 308 309 314 325 324 327 326 322 319 318 321 319 318 309
313 312 313 313 313 313 312 311 311 311 312 313 312 311 310 310 309 307 306 305 303 300 299 299 300 302 305 307 308 308 308 307 307 307 307 307 308 310 322 322 323 324 324 321 318 321 320 319 312
313 312 311 311 312 312 311 309 310 312 311 312 312 311 310 309 309 307 306 305 303 300 299 299 301 304 306 308 309 309 309 308 307 305 305 307 307 310 320 322 320 319 320 321 319 320 320 318 315
313 311 310 312 311 312 309 310 307 310 311 311 312 311 310 309 309 307 306 305 303 299 298 300 302 305 308 309 309 310 310 309 308 307 304 306 307 308 316 321 321 321 320 320 320 320 320 318 316
310 309 312 311 311 311 310 310 307 310 311 311 312 312 310 309 308 307 306 305 301 298 299 301 303 307 308 310 310 310 309 309 309 308 306 305 307 307 310 321 322 322 322 323 322 321 320 318 318
311 312 311 310 310 310 310 310 310 310 311 311 312 311 310 309 308 307 306 305 299 298 300 302 304 307 308 310 311 311 310 309 309 308 307 306 306 307 309 319 322 323 321 322 323 322 321 316 319
312 311 311 309 310 310 309 309 309 308 309 308 310 311 311 310 308 306 306 303 299 299 300 304 304 307 307 310 311 311 311 313 310 309 307 305 307 307 310 319 322 322 322 319 322 322 320 317 318
311 311 309 308 309 309 308 308 308 307 306 307 308 310 311 309 307 306 306 301 298 299 301 304 306 307 308 310 311 311 313 313 312 309 307 306 307 308 311 321 322 323 320 316 315 316 317 316 316
310 308 307 309 307 307 305 308 306 308 309 309 307 308 309 310 307 306 305 299 298 299 302 305 307 307 309 311 311 312 312 313 314 310 307 307 308 309 318 321 321 321 318 316 317 319 320 316 313
310 309 309 309 307 307 305 310 304 306 307 309 308 309 310 308 307 306 303 298 298 300 304 307 308 308 310 310 310 312 312 314 313 312 311 309 310 315 319 322 321 321 317 318 319 320 319 316 313
308 308 308 309 308 309 307 305 307 305 308 309 308 309 309 308 307 306 300 298 299 301 305 308 309 309 310 311 311 312 312 315 314 314 313 312 313 317 320 319 320 319 321 321 320 322 319 315 313
306 308 307 307 307 309 304 306 309 303 308 306 307 309 308 308 306 304 299 298 300 302 307 309 310 310 311 312 311 312 312 314 314 315 313 315 315 318 319 320 321 321 321 320 321 321 320 317 313
308 306 308 309 309 312 308 308 311 307 308 307 306 309 309 307 305 302 299 298 301 303 308 309 310 310 311 312 312 313 313 314 314 315 314 316 317 318 319 320 321 321 321 321 320 321 321 318 316
306 306 309 311 311 310 307 310 309 305 306 307 309 309 309 306 304 300 298 298 302 304 307 309 309 311 311 311 311 313 314 315 315 315 316 317 317 318 320 319 319 319 321 320 321 321 320 319 317
307 308 306 306 299 306 306 304 304 304 307 306 306 307 307 306 303 300 299 298 302 304 306 308 308 310 310 311 312 313 315 315 314 316 317 315 315 316 319 319 319 319 319 320 320 319 317 316 315
306 304 306 304 305 307 307 307 307 308 307 305 303 304 306 305 303 301 299 298 302 304 306 308 309 310 310 310 311 312 314 315 314 316 315 315 317 316 318 320 319 319 319 318 318 315 313 313 312
306 306 306 304 306 309 308 312 303 305 305 305 303 306 306 305 304 302 299 298 301 304 306 307 308 310 310 310 311 312 312 313 315 315 315 316 316 317 318 318 316 314 313 312 312 312 312 313 311
305 306 305 308 308 305 307 308 304 303 305 303 305 307 307 306 305 302 300 298 300 303 306 306 308 309 310 311 311 311 311 312 313 315 315 315 315 315 316 315 314 312 312 311 312 310 311 311 311
Wind_Speed
5 6 5 1 3 4 3 3 2 1 1 2 1 2 8 5 2 2 7 3 6 7 7 8 10 10 12 11 13 13 13 14 14 15 15 15 15 14 14 13 11 10 10 10 8 8 13 13 7
5 6 5 3 4 2 4 3 1 1 1 11 8 5 5 2 3 4 2 4 6 8 8 8 9 11 14 16 15 15 15 14 16 16 17 16 16 17 17 15 13 11 10 9 10 10 12 12 10
7 8 4 4 3 4 4 3 3 1 3 3 4 6 3 3 4 3 3 6 8 10 12 11 11 12 13 17 18 19 18 18 18 19 19 19 18 19 19 16 15 13 12 11 10 12 12 13 11
5 4 5 4 4 4 4 3 2 2 1 5 6 5 4 4 2 2 6 9 11 12 14 15 16 16 16 18 20 23 21 22 21 22 22 22 21 20 21 19 18 18 15 12 12 15 12 13 13
6 2 3 2 4 3 2 1 1 1 2 3 1 4 6 4 1 3 7 11 14 16 18 20 22 22 20 20 22 25 25 26 25 25 24 25 24 23 23 22 20 21 18 14 15 16 16 13 15
2 2 3 3 4 3 3 1 1 1 1 1 3 6 4 5 2 4 9 15 18 19 21 22 23 25 24 25 26 27 28 29 28 26 28 28 27 26 26 25 24 24 20 15 16 19 19 18 16
5 4 3 3 3 2 4 2 1 3 1 3 6 5 4 5 4 8 13 17 18 19 21 22 23 24 26 26 27 29 28 28 29 32 31 33 31 28 28 27 28 27 21 17 18 19 14 18 18
4 4 2 3 3 4 3 3 2 5 5 4 4 4 3 9 8 11 15 18 17 17 16 17 17 18 21 24 26 28 29 30 29 33 36 39 30 29 28 27 29 30 24 19 19 20 16 17 17
3 4 2 4 5 3 3 2 4 3 4 6 4 4 4 5 8 12 14 13 11 12 15 17 19 20 21 21 22 24 28 29 30 31 37 40 27 31 31 30 29 30 25 20 22 18 12 18 16
4 3 5 1 2 2 2 4 4 3 5 6 7 7 5 7 9 12 12 11 12 17 19 21 23 25 27 28 27 24 24 27 26 29 30 32 36 31 33 29 30 32 24 21 23 17 13 16 16
3 4 2 2 2 2 3 3 5 4 6 11 14 13 9 10 10 11 10 10 16 18 21 24 26 28 29 30 30 27 25 25 24 26 27 28 27 27 30 30 32 32 27 25 24 20 18 18 17
0 3 2 2 3 2 3 3 5 14 7 4 8 10 10 8 9 9 9 14 17 20 22 25 27 29 30 31 32 32 29 24 25 25 23 25 25 26 28 34 36 35 30 29 27 25 18 18 17
1 1 4 5 5 7 6 9 8 15 16 13 9 10 10 8 9 10 12 15 18 22 24 27 28 31 32 35 37 33 26 25 25 26 24 23 25 23 23 17 42 38 32 31 29 24 20 19 18
1 3 5 6 6 7 4 5 2 5 11 16 13 12 11 9 9 11 14 16 20 23 27 29 30 33 34 37 32 22 23 24 25 25 23 22 22 23 25 18 27 25 27 30 27 25 22 19 19
1 4 5 6 5 4 2 7 10 20 7 16 16 13 12 10 10 12 14 17 21 24 28 30 32 33 33 33 25 22 22 22 23 23 24 21 21 25 25 25 37 33 35 34 30 27 21 18 19
1 2 3 2 6 2 2 9 4 6 13 17 17 14 13 13 11 12 14 17 21 24 27 28 31 32 31 27 22 25 25 23 21 20 18 19 20 25 29 23 32 37 38 38 34 28 24 18 21
3 4 4 6 8 2 4 8 3 5 15 17 18 17 15 14 13 13 14 17 20 23 25 29 32 31 31 21 22 24 24 23 20 17 15 15 19 23 28 28 10 39 40 42 39 32 28 20 21
4 4 5 5 2 4 6 18 16 18 18 25 24 20 16 15 14 13 14 16 18 22 25 28 32 33 28 19 22 22 22 20 19 16 15 13 15 21 27 29 14 33 37 38 37 31 29 25 23
2 3 4 4 0 3 7 16 20 17 21 23 29 25 19 16 14 13 13 16 18 21 26 28 33 33 25 19 23 23 24 24 20 15 12 11 10 18 26 24 17 29 32 24 34 24 30 26 20
3 1 4 4 2 1 6 20 19 5 8 20 23 28 24 15 14 12 12 15 17 21 25 29 32 33 23 19 21 24 24 22 18 15 7 7 7 17 25 18 27 35 33 26 14 19 31 30 24
2 4 3 3 5 1 8 9 5 2 4 5 11 15 19 16 14 10 11 13 16 21 25 29 32 30 19 18 20 22 23 23 20 15 7 3 5 20 25 25 29 34 27 9 25 31 33 36 30
3 3 3 2 5 3 4 5 6 4 7 2 5 10 14 14 13 9 9 11 15 20 23 27 29 25 15 19 20 22 22 22 14 11 7 2 10 22 19 29 21 36 28 28 31 32 32 35 35
3 3 2 2 2 3 3 3 8 4 4 3 5 12 14 14 10 7 8 9 13 18 22 25 25 20 15 17 20 19 17 14 11 9 10 12 17 16 15 23 32 34 22 23 26 33 34 34 38
6 4 5 4 2 2 2 4 6 3 3 1 2 15 17 15 11 7 6 7 10 15 19 24 22 18 17 18 21 17 13 12 13 12 15 14 18 10 15 16 16 24 22 19 24 28 31 30 33
2 4 2 4 2 4 3 2 11 5 5 4 4 18 19 15 12 7 4 5 8 13 17 23 24 15 17 18 20 18 13 13 15 14 14 12 11 13 14 12 12 13 13 16 17 27 28 24 28
5 4 4 5 2 4 3 6 6 5 4 7 7 12 17 16 12 8 4 3 5 10 12 16 23 20 16 15 17 15 12 11 18 17 16 18 16 12 12 12 12 13 11 11 16 26 27 27 31
4 4 1 6 2 3 3 7 8 4 2 1 5 13 18 17 13 9 5 3 3 6 9 13 17 18 17 17 15 15 12 10 17 20 13 15 16 12 11 13 11 9 6 5 12 13 22 29 24
3 4 3 2 2 4 5 5 6 3 7 6 6 16 20 18 16 12 7 4 2 4 8 10 12 17 20 16 11 11 12 11 12 21 20 18 19 16 14 16 14 15 12 16 24 29 28 23 23
3 3 1 2 3 4 1 6 6 6 6 10 9 22 22 21 18 14 10 6 5 2 7 6 8 10 17 19 17 13 10 11 9 15 19 16 16 18 17 17 31 34 32 26 29 31 27 25 32
3 6 6 4 5 3 1 7 3 5 4 8 15 22 21 20 17 16 12 9 8 5 7 8 8 7 12 17 18 19 17 17 16 14 15 17 22 25 29 30 29 30 31 31 33 36 28 27 26
Wind_Direction
217 206 197 73 44 58 262 246 294 101 72 326 317 75 118 71 89 206 148 355 322 320 305 292 282 275 269 280 265 264 267 258 256 250 245 244 242 239 229 232 239 233 224 219 209 199 186 195 181
189 171 144 92 88 58 269 278 214 272 89 113 86 82 50 83 94 116 198 295 304 313 311 302 290 285 278 276 281 270 264 261 256 256 251 246 243 235 231 235 236 235 225 216 191 215 192 204 215
169 158 121 99 112 186 221 226 208 294 40 155 102 75 97 109 99 134 349 316 308 302 306 305 298 280 273 270 272 269 266 262 256 250 249 245 241 236 231 232 231 228 216 214 204 218 218 206 196
150 131 69 98 213 242 214 197 245 192 77 57 110 72 93 116 147 359 329 315 311 308 304 301 297 290 277 268 264 266 262 255 252 250 246 243 240 234 232 231 232 217 213 216 216 206 215 208 189
148 122 77 99 263 272 234 216 327 55 345 43 138 163 154 130 130 337 329 322 313 306 301 297 296 289 280 274 265 261 255 247 248 247 243 243 240 235 230 231 226 216 211 213 206 204 210 205 192
109 110 65 228 236 242 272 218 133 85 273 5 99 146 175 154 224 308 316 311 309 304 299 297 292 290 288 279 270 265 263 256 254 252 246 238 239 238 233 229 224 216 214 210 208 208 222 201 199
117 87 210 219 238 242 217 145 171 192 238 236 156 147 180 187 306 315 311 310 305 305 304 300 298 294 289 285 281 275 268 262 260 252 247 244 228 230 235 230 224 217 213 207 206 213 220 195 191
103 88 203 260 201 261 170 148 176 201 233 189 196 193 214 212 270 290 299 300 302 308 313 321 318 312 302 295 287 281 273 265 258 255 254 247 240 224 230 231 226 217 209 208 213 213 218 195 184
99 62 256 260 146 253 156 155 212 225 217 212 218 185 194 232 273 296 295 301 315 330 340 334 334 328 320 314 307 288 274 270 261 258 256 259 261 227 224 224 223 215 207 202 210 213 235 187 186
91 123 228 217 184 237 204 206 211 231 214 223 206 204 234 271 290 301 311 319 331 336 335 333 332 332 332 327 319 310 288 276 266 261 258 258 258 242 226 223 221 214 202 200 205 208 220 196 188
127 202 226 241 224 209 224 251 225 209 248 226 213 212 239 264 292 308 311 324 330 333 332 334 334 334 331 327 322 314 305 284 273 268 262 256 257 244 218 223 224 204 201 198 201 203 216 207 191
150 238 225 258 241 245 230 264 262 225 237 259 224 220 241 266 296 304 310 322 328 331 333 333 331 332 327 322 319 313 301 295 279 273 269 257 249 233 224 218 211 202 196 198 199 202 210 204 189
162 250 239 254 253 257 258 253 252 258 248 244 229 235 248 264 297 301 307 315 326 329 332 333 330 329 324 324 323 317 310 296 286 274 266 258 248 233 226 240 213 196 195 198 200 200 200 196 185
305 271 284 260 256 255 254 266 298 270 227 222 224 236 249 258 294 295 302 316 326 329 332 332 331 329 326 326 323 324 321 314 307 279 267 254 246 225 220 193 191 200 202 201 202 201 197 191 187
33 320 305 244 228 250 318 274 234 247 246 217 223 237 247 254 276 290 301 315 324 328 332 330 332 328 325 327 331 330 324 314 308 298 277 248 244 215 208 200 198 210 212 213 203 201 196 190 184
352 44 320 195 176 230 106 273 253 226 205 214 223 238 248 251 264 281 297 313 319 327 329 332 332 329 329 332 335 327 322 317 310 300 291 247 236 220 211 207 208 222 213 217 200 195 193 188 179
12 244 228 307 201 142 185 273 244 215 208 226 230 238 249 248 252 268 291 309 320 330 330 334 336 336 334 341 336 332 333 325 314 301 289 269 236 220 217 208 179 208 210 203 202 196 187 180 176
209 229 249 252 220 221 248 259 264 256 234 239 241 237 243 244 247 261 286 309 322 331 332 337 343 340 340 346 334 346 345 339 327 310 291 268 245 218 211 202 190 190 190 202 204 192 177 174 175
154 220 254 271 171 260 244 277 276 261 242 235 237 235 237 242 237 254 286 308 324 332 336 343 345 347 350 349 340 342 340 341 338 318 288 261 239 214 197 190 192 204 199 203 204 190 174 161 176
228 220 270 280 299 254 321 288 286 260 241 239 231 235 233 227 227 249 287 308 330 340 341 348 346 348 349 344 345 340 343 342 337 337 300 236 219 191 180 164 186 185 173 143 135 200 167 171 173
227 194 228 245 317 239 313 292 334 291 297 295 233 238 224 219 223 245 284 313 337 344 349 353 348 351 351 348 342 348 355 356 8 9 15 238 186 175 163 168 172 169 173 155 184 203 185 173 176
247 185 150 55 28 273 8 279 305 300 305 274 177 177 188 201 215 244 289 320 342 352 356 358 354 356 357 353 351 358 359 6 6 26 43 74 155 155 165 163 173 179 189 184 189 201 183 178 177
228 124 93 82 72 337 355 67 271 346 322 248 190 187 195 201 214 245 291 330 348 358 6 0 2 5 6 1 358 5 10 32 27 50 60 106 137 157 142 175 177 188 193 197 195 198 184 185 183
144 77 44 51 59 348 243 115 285 241 217 304 193 196 200 207 211 236 282 333 352 9 18 4 17 11 15 14 10 12 9 52 58 70 106 119 149 137 156 159 183 197 200 193 201 202 192 192 191
91 89 331 345 10 227 147 89 247 259 239 222 209 205 203 203 209 228 271 325 358 19 31 20 28 19 14 4 21 33 38 72 77 88 106 118 139 142 148 146 168 180 189 198 209 213 191 190 190
181 171 167 209 215 284 89 235 249 200 271 245 244 210 195 194 207 221 255 318 2 27 41 29 19 24 24 19 25 45 54 86 95 94 105 99 101 117 143 148 153 174 192 206 223 191 184 189 199
186 199 165 106 41 39 231 281 293 228 228 140 171 180 188 192 205 214 237 274 340 26 43 44 24 12 28 31 36 54 71 76 107 108 103 110 109 96 139 137 157 164 201 174 187 189 145 137 129
157 164 85 352 138 257 279 275 244 264 217 215 196 203 196 196 200 207 222 234 257 40 47 63 39 24 34 34 33 46 80 88 103 121 124 135 134 142 135 148 153 150 154 157 150 133 128 123 124
141 208 132 135 163 180 277 265 210 221 198 208 213 213 205 202 204 203 205 214 228 112 71 68 59 47 55 54 53 66 86 98 105 120 122 124 134 135 133 134 125 123 125 129 130 129 128 134 132
170 195 173 147 215 243 211 274 176 215 219 216 231 219 214 212 211 208 203 205 222 174 113 94 86 78 81 75 67 68 83 92 101 102 110 121 127 128 124 128 127 124 126 125 126 125 128 130 137